Wind_Speed
27 27 27 28 28 31 37 44 50 59 61 61 59 50 50 49 50 48 47 47 45 43 41 38 38 38 35 38 36 14 21 24 25 24 22 22 22 21 22 20 23 22 20 20 21 18 20
29 28 26 26 27 27 28 33 41 48 58 64 65 56 50 51 52 51 50 48 47 46 43 41 40 41 41 46 30 28 26 18 21 24 23 25 24 24 25 24 25 24 23 24 26 24 24
31 29 26 26 25 26 27 30 32 38 45 57 64 62 51 50 49 53 51 50 49 48 44 42 42 44 49 45 30 32 34 30 20 22 25 28 28 26 26 23 27 30 25 28 29 29 27
33 32 30 27 28 28 28 29 32 33 37 43 58 65 61 52 43 52 52 52 50 50 47 44 44 47 57 43 37 37 35 32 31 22 22 26 28 28 26 25 27 29 29 30 27 24 25
35 35 34 32 30 31 29 29 30 34 34 37 42 58 63 54 52 41 53 52 50 50 48 47 47 48 57 47 48 43 39 28 28 32 28 25 22 25 27 25 24 27 31 31 27 22 22
35 36 35 36 35 32 31 30 32 32 34 35 37 43 57 59 53 35 36 48 51 52 49 49 49 48 53 43 46 41 38 33 28 27 33 32 28 29 28 29 32 33 26 25 23 18 17
34 34 35 34 34 33 32 31 31 32 33 35 35 39 41 47 56 37 35 19 54 54 57 62 59 60 12 30 46 29 39 36 34 36 33 30 34 40 34 30 31 29 20 22 19 12 11
35 37 35 36 34 33 33 32 31 31 31 33 36 35 40 46 45 44 34 35 46 57 53 61 61 58 44 19 29 42 38 45 42 43 37 36 46 39 31 31 32 31 26 22 21 22 17
38 38 37 36 36 36 33 32 32 32 31 31 33 35 35 34 56 65 45 38 39 45 36 45 62 61 54 40 28 32 38 43 48 44 44 45 43 41 35 34 30 31 31 27 28 26 25
38 37 38 37 36 38 37 34 32 32 31 30 31 34 36 32 42 54 58 41 33 43 30 44 47 66 63 54 56 33 41 40 43 50 44 42 45 34 21 38 34 34 30 25 22 23 22
38 37 36 36 37 38 39 37 34 31 30 29 29 32 36 38 35 53 66 37 24 29 9 30 56 47 46 65 61 55 38 40 44 43 43 52 42 40 43 38 33 38 25 26 26 18 27
34 35 34 34 37 38 39 41 37 34 32 30 28 30 36 38 37 44 59 47 45 26 8 21 37 61 46 50 61 40 51 43 40 37 42 46 38 38 44 40 24 29 16 21 23 21 18
30 31 31 33 35 37 38 40 41 37 35 31 28 30 38 40 39 35 46 45 26 16 10 23 28 48 67 65 50 46 43 58 48 38 45 33 45 27 31 24 37 27 29 6 5 6 12
26 27 29 31 33 36 38 40 42 40 36 32 29 31 38 42 34 33 47 40 21 22 37 18 36 37 47 56 55 50 50 60 59 52 37 38 25 50 31 35 35 38 38 19 9 5 12
24 27 29 31 33 36 39 39 41 40 36 32 32 34 40 42 38 38 41 52 30 35 39 50 27 38 41 49 49 59 52 62 58 60 43 37 35 25 52 38 35 37 40 44 11 12 2
25 27 29 31 34 35 35 35 38 38 35 32 35 35 46 39 41 44 50 39 27 42 26 42 34 40 41 51 43 57 58 64 67 63 58 28 23 29 35 41 39 47 43 26 28 5 5
24 26 29 29 31 33 33 33 33 34 34 29 33 39 50 42 42 42 48 32 36 48 26 30 30 35 46 51 52 55 53 38 66 64 61 38 25 22 29 52 50 43 41 39 33 33 8
25 24 26 28 30 29 30 30 31 33 33 34 37 47 53 48 47 49 42 41 33 50 40 26 41 25 35 42 50 46 57 72 36 66 64 62 23 21 43 44 55 52 57 58 32 15 35
22 25 27 27 27 25 24 24 27 32 35 39 45 49 44 52 50 50 48 29 45 33 53 34 35 44 27 40 40 45 47 45 38 38 59 62 38 16 14 36 45 57 51 48 44 28 36
22 24 24 26 25 24 24 24 27 30 34 45 52 36 32 50 51 48 50 31 42 42 54 64 38 25 32 37 38 34 45 38 48 28 43 55 50 50 36 47 39 43 53 54 51 41 31
24 25 26 23 25 22 28 26 26 25 40 53 61 38 46 49 54 53 49 29 30 49 41 46 52 47 40 31 39 38 37 40 39 49 34 48 53 55 63 39 24 46 50 57 60 69 43
26 28 28 21 18 20 22 26 26 29 43 58 60 49 54 42 48 53 47 53 30 49 31 49 45 50 38 47 51 42 42 33 43 35 47 46 42 51 53 42 51 32 37 53 65 61 60
28 31 31 22 17 16 21 25 27 33 51 64 64 54 49 37 40 45 52 47 52 36 37 40 54 45 48 51 53 44 43 41 25 44 39 48 53 30 51 47 37 37 69 40 46 60 65
32 34 32 21 14 16 20 27 31 39 51 61 66 52 49 41 38 37 44 46 49 47 47 29 32 48 57 44 39 37 29 31 35 34 36 30 44 43 22 26 22 51 49 63 50 44 51
33 34 36 22 17 18 22 29 34 41 51 65 43 44 45 40 43 38 36 25 21 40 30 48 35 36 43 44 29 32 37 37 42 38 42 35 29 19 21 32 13 42 42 48 55 72 60
34 34 32 20 16 3 17 30 36 45 55 61 54 44 38 33 35 31 35 33 26 22 39 49 30 30 35 36 36 18 14 22 11 12 34 41 36 31 15 11 16 30 39 35 25 52 48
35 35 30 15 3 13 13 14 40 41 58 45 44 30 28 31 30 27 27 23 23 28 29 38 47 39 32 32 37 25 27 31 19 17 17 34 35 37 31 14 21 17 20 27 31 28 38
36 37 28 7 5 17 16 13 20 26 32 27 28 30 30 29 25 26 28 24 18 20 24 25 36 27 46 39 27 21 15 27 31 26 30 27 29 23 26 20 14 15 30 37 32 15 25
34 37 25 4 5 14 16 21 20 22 23 23 25 27 26 24 19 28 31 31 30 25 24 31 27 16 25 32 23 19 30 21 33 24 33 18 26 18 23 17 15 30 36 36 21 26 14
Wind_Direction
267 265 267 267 265 257 252 247 241 238 236 238 244 241 241 240 240 240 237 237 237 235 236 236 239 239 235 238 228 234 230 227 230 228 226 226 226 228 227 224 211 225 223 232 247 248 240
272 268 264 268 267 268 263 256 251 244 238 236 240 243 244 238 239 240 237 237 237 236 234 236 238 238 237 237 234 229 231 218 225 225 223 226 222 227 228 217 212 219 225 229 232 245 254
269 268 265 265 264 266 267 265 259 255 248 239 237 238 239 245 232 238 237 236 236 238 235 234 238 239 238 230 235 229 233 226 215 215 221 224 224 221 226 221 218 222 230 231 228 240 249
266 263 266 264 266 269 266 264 264 260 258 252 240 237 233 238 241 230 237 237 234 235 235 235 235 239 242 232 225 232 229 227 226 220 218 227 230 223 222 226 228 228 236 239 238 240 245
263 263 262 266 269 269 270 267 264 262 259 260 254 239 238 231 236 236 233 231 231 232 233 233 234 239 244 233 226 230 232 224 230 234 231 230 228 234 228 226 233 234 236 243 249 244 241
259 259 261 262 265 266 267 268 266 263 263 258 259 252 237 240 233 235 228 224 228 230 229 231 232 235 237 234 234 223 231 227 229 233 233 229 230 229 225 222 225 228 231 239 243 241 257
260 262 257 259 259 260 262 264 266 265 264 260 256 256 248 236 233 214 207 236 226 226 225 229 229 232 232 243 235 229 221 231 228 231 230 229 231 228 226 231 236 241 240 243 239 225 282
255 260 261 258 257 257 258 258 260 261 266 263 257 252 253 239 233 226 215 249 242 231 233 228 230 233 217 225 218 218 205 216 219 228 227 224 234 232 233 236 238 237 237 236 242 230 261
256 257 261 260 259 255 254 255 254 258 262 265 259 254 248 248 230 227 231 225 223 220 237 235 232 236 225 220 215 218 208 217 223 222 227 227 236 239 229 230 231 236 240 241 242 243 258
255 259 259 259 259 255 252 250 251 253 257 262 262 254 245 239 235 225 231 237 220 214 234 234 228 233 228 222 229 212 209 212 215 223 224 236 233 226 230 234 232 236 235 236 252 257 264
257 259 261 260 258 258 252 249 247 250 254 258 261 253 238 235 246 222 230 212 231 203 228 233 229 227 226 224 226 220 214 210 218 219 214 229 236 226 226 231 222 233 230 230 239 243 254
259 259 262 262 259 259 257 249 246 247 251 256 260 254 234 230 233 220 211 213 232 240 226 220 219 216 209 217 221 219 214 212 219 222 231 240 241 237 237 228 220 225 215 233 242 246 249
261 263 262 262 261 259 258 254 244 245 249 253 258 253 229 228 232 227 213 239 224 209 220 227 209 214 221 214 211 208 206 207 205 207 221 230 225 222 225 221 220 206 213 191 225 206 243
264 267 266 265 265 263 261 255 245 242 247 250 255 245 229 228 221 224 222 232 218 238 221 243 207 213 210 207 214 196 208 207 209 215 218 212 222 217 208 208 207 210 201 189 182 199 246
272 271 271 269 267 266 263 254 243 241 244 248 249 241 225 223 214 215 210 222 222 231 235 222 204 193 205 201 212 197 203 213 215 208 211 212 228 231 216 211 203 201 205 216 227 228 281
279 278 276 272 273 267 261 250 241 240 243 245 242 231 218 221 212 213 227 239 214 218 212 206 200 201 197 199 198 195 198 211 220 220 214 220 221 223 223 209 211 215 210 199 217 186 247
287 284 279 273 271 264 256 246 237 238 241 236 228 220 227 215 211 218 235 240 229 212 212 209 206 203 208 195 200 200 202 212 216 220 216 210 212 214 208 206 204 203 212 216 226 221 204
291 287 282 276 272 260 253 239 232 235 234 222 221 214 227 207 205 218 231 232 219 230 225 224 217 196 204 199 199 205 206 215 213 218 210 211 222 221 213 223 217 210 210 211 212 210 228
298 294 285 281 279 261 253 237 241 240 228 212 210 212 219 207 198 214 224 249 229 224 212 222 206 214 183 203 200 208 220 218 213 213 212 208 213 207 213 217 215 215 214 216 217 226 226
308 306 300 288 282 264 254 244 246 245 214 202 202 198 181 201 209 217 208 226 225 220 216 226 221 215 205 202 207 210 223 221 208 214 216 213 213 215 215 218 210 216 217 219 217 217 220
321 320 314 298 282 255 248 240 240 223 199 200 195 199 194 196 202 212 216 225 227 223 221 216 234 227 214 217 206 208 216 219 222 217 213 214 216 222 230 231 227 226 219 218 219 227 219
329 327 321 305 271 254 252 230 219 213 197 198 200 199 202 204 202 210 215 215 217 216 232 219 230 226 216 217 218 217 218 213 220 208 220 215 223 228 236 233 229 233 228 226 226 228 231
335 335 333 318 287 258 247 218 212 203 193 196 203 203 206 195 202 214 222 220 220 210 209 204 224 219 216 219 222 233 239 231 224 215 220 215 220 220 234 231 237 241 231 224 228 231 232
344 341 336 319 293 267 242 214 205 198 198 203 203 207 196 196 204 216 228 229 229 230 235 225 215 219 218 217 221 224 225 235 236 227 218 214 217 215 237 216 225 241 236 228 230 235 232
347 342 342 331 307 276 228 206 198 195 201 203 186 188 195 198 209 215 221 229 231 222 219 233 226 212 218 211 229 238 238 240 238 241 249 220 225 217 212 208 242 239 233 224 224 238 239
348 343 344 337 329 5 181 192 190 192 206 201 209 186 189 196 206 222 231 236 224 223 233 240 230 212 220 231 230 230 199 224 223 236 237 249 241 223 208 204 211 253 232 228 228 238 229
349 345 346 343 3 134 177 187 187 186 197 202 198 195 198 201 211 221 229 237 234 232 243 234 233 231 217 223 226 222 221 223 210 211 203 208 224 222 211 221 233 223 202 196 188 237 224
350 349 349 354 166 163 179 189 171 180 192 187 188 199 205 209 212 219 222 224 216 220 226 232 234 242 224 225 232 210 220 222 220 224 205 191 187 204 210 216 249 226 193 200 213 205 197
357 355 357 63 156 177 186 192 186 184 191 195 202 204 211 216 221 226 232 242 245 245 242 215 218 183 211 221 227 229 221 216 207 210 206 223 191 173 191 197 166 182 201 202 195 194 198
Height
3040 3040 3040 3041 3043 3044 3047 3050 3054 3059 3066 3071 3077 3084 3086 3092 3097 3101 3106 3110 3113 3116 3120 3124 3127 3130 3131 3132 3138 3144 3146 3148 3151 3154 3156 3158 3160 3161 3163 3165 3167 3166 3168 3169 3169 3169 3173
3033 3033 3034 3035 3035 3036 3038 3040 3044 3048 3053 3059 3066 3072 3077 3081 3087 3092 3097 3102 3106 3109 3112 3117 3119 3122 3123 3121 3139 3140 3142 3144 3146 3150 3152 3152 3154 3157 3158 3160 3162 3162 3163 3165 3167 3166 3167
3025 3026 3027 3028 3029 3030 3030 3032 3035 3038 3042 3047 3054 3062 3067 3073 3076 3083 3089 3094 3097 3103 3105 3109 3111 3112 3110 3116 3128 3133 3133 3140 3140 3143 3146 3147 3150 3153 3154 3158 3157 3158 3160 3161 3162 3164 3165
3017 3019 3020 3021 3022 3023 3024 3025 3027 3030 3033 3037 3042 3050 3057 3063 3067 3073 3079 3085 3089 3094 3098 3101 3102 3103 3094 3115 3122 3123 3128 3133 3138 3139 3141 3143 3147 3149 3151 3152 3154 3155 3156 3155 3158 3160 3161
3007 3009 3012 3013 3014 3015 3017 3018 3020 3022 3025 3028 3032 3037 3044 3052 3059 3063 3070 3076 3080 3084 3089 3092 3094 3095 3089 3105 3106 3117 3121 3128 3133 3136 3137 3139 3143 3145 3147 3148 3150 3150 3149 3150 3154 3155 3156
2998 3000 3002 3004 3006 3007 3009 3010 3012 3014 3017 3020 3023 3027 3034 3041 3049 3057 3063 3067 3070 3073 3079 3083 3085 3088 3084 3095 3103 3110 3117 3123 3126 3130 3130 3133 3136 3137 3139 3142 3141 3142 3144 3147 3148 3152 3151
2988 2989 2992 2994 2996 2998 3000 3002 3004 3006 3009 3012 3014 3018 3024 3031 3042 3047 3053 3055 3058 3063 3062 3064 3068 3071 3083 3087 3096 3100 3111 3115 3119 3120 3121 3128 3128 3123 3132 3136 3139 3141 3142 3143 3145 3147 3146
2977 2979 2982 2984 2986 2989 2991 2993 2996 2998 3001 3003 3007 3010 3014 3021 3029 3040 3039 3040 3048 3055 3055 3055 3061 3065 3080 3081 3084 3091 3099 3102 3107 3108 3115 3121 3109 3122 3131 3132 3133 3136 3138 3139 3141 3142 3143
2967 2969 2972 2973 2976 2979 2982 2984 2987 2990 2992 2995 2998 3002 3006 3012 3019 3027 3027 3033 3042 3046 3047 3043 3049 3056 3071 3077 3078 3083 3091 3093 3097 3102 3104 3107 3109 3117 3122 3123 3127 3129 3131 3135 3137 3137 3136
2956 2958 2961 2963 2966 2968 2972 2975 2978 2981 2984 2986 2989 2993 2998 3002 3004 3013 3018 3031 3032 3034 3034 3031 3034 3036 3051 3065 3064 3077 3081 3087 3089 3091 3099 3102 3104 3109 3113 3115 3121 3122 3127 3131 3133 3134 3130
2946 2948 2950 2952 2955 2958 2961 2965 2968 2972 2975 2977 2980 2984 2989 2991 2997 3003 3017 3024 3027 3027 3017 3014 3016 3029 3040 3048 3055 3063 3076 3079 3080 3084 3093 3082 3091 3100 3104 3103 3114 3112 3122 3126 3129 3129 3127
2936 2938 2940 2942 2945 2948 2951 2954 2958 2962 2966 2969 2971 2975 2980 2983 2986 2997 3007 3013 3018 3018 2995 3002 3002 3008 3022 3032 3043 3059 3065 3072 3079 3084 3083 3084 3090 3095 3094 3103 3108 3114 3119 3122 3123 3125 3118
2927 2929 2931 2933 2934 2937 2939 2942 2946 2951 2956 2959 2962 2965 2970 2975 2978 2993 2999 2997 2999 2987 2993 2993 2995 2996 3002 3017 3031 3044 3050 3056 3060 3070 3069 3076 3080 3086 3090 3093 3104 3107 3112 3118 3121 3121 3106
2919 2920 2922 2923 2924 2925 2927 2930 2934 2940 2945 2950 2953 2956 2959 2964 2977 2982 2987 2984 2970 2972 2986 2989 2993 2996 2997 3009 3020 3031 3041 3046 3053 3056 3061 3065 3070 3068 3077 3080 3088 3096 3100 3098 3107 3110 3098
2911 2912 2912 2913 2913 2914 2915 2917 2922 2928 2934 2939 2942 2945 2948 2956 2966 2972 2978 2966 2957 2973 2979 2982 2991 2990 2994 3001 3008 3021 3026 3028 3032 3040 3049 3056 3056 3062 3071 3076 3084 3087 3090 3090 3095 3096 3095
2904 2903 2903 2902 2902 2902 2902 2905 2910 2916 2923 2928 2930 2934 2938 2950 2956 2962 2960 2950 2956 2967 2971 2978 2980 2981 2983 2988 3000 3008 3014 3016 3020 3028 3041 3046 3051 3053 3062 3071 3077 3076 3083 3089 3089 3091 3093
2895 2894 2892 2891 2891 2890 2891 2893 2898 2905 2911 2918 2922 2925 2927 2939 2947 2949 2938 2946 2954 2957 2964 2970 2972 2974 2975 2979 2987 2994 2998 3005 3015 3020 3033 3043 3044 3046 3055 3054 3052 3066 3072 3077 3078 3075 3075
2887 2885 2883 2881 2879 2879 2879 2882 2887 2893 2900 2907 2911 2914 2916 2928 2933 2934 2938 2941 2944 2950 2957 2962 2965 2967 2971 2972 2980 2987 2986 2991 3001 3012 3019 3029 3037 3040 3038 3045 3050 3052 3051 3055 3059 3062 3066
2880 2877 2874 2871 2868 2868 2868 2871 2875 2880 2886 2894 2899 2905 2907 2915 2915 2924 2927 2931 2938 2941 2951 2954 2955 2959 2958 2967 2977 2979 2980 2992 3001 3003 3008 3019 3024 3031 3036 3043 3039 3037 3048 3052 3056 3059 3056
2872 2869 2865 2861 2858 2857 2858 2861 2865 2867 2873 2883 2889 2896 2894 2901 2913 2918 2924 2928 2928 2940 2941 2946 2943 2948 2957 2964 2968 2971 2976 2986 2996 2999 3006 3013 3015 3014 3008 3007 3030 3032 3035 3042 3046 3046 3042
2866 2861 2856 2852 2847 2847 2848 2851 2854 2858 2864 2869 2875 2880 2878 2886 2901 2907 2913 2921 2921 2926 2933 2936 2937 2944 2955 2957 2960 2963 2973 2982 2989 2995 3001 3005 3003 3006 3003 3017 3021 3021 3024 3028 3029 3023 3033
2859 2854 2848 2842 2839 2837 2837 2841 2845 2849 2856 2861 2864 2867 2874 2883 2895 2900 2903 2910 2917 2922 2925 2924 2931 2937 2947 2949 2949 2960 2972 2974 2979 2985 2990 2996 2994 3003 2999 3006 3011 3014 3016 3015 3014 3019 3023
2854 2846 2838 2832 2828 2828 2828 2831 2836 2840 2846 2849 2857 2865 2874 2881 2889 2895 2894 2901 2908 2916 2917 2923 2928 2932 2940 2946 2956 2960 2964 2968 2969 2975 2980 2985 2989 2994 2984 3000 3006 3005 2983 3003 3007 3010 3012
2846 2838 2831 2823 2820 2819 2819 2822 2828 2832 2839 2845 2851 2861 2870 2878 2884 2887 2890 2895 2902 2910 2910 2914 2923 2927 2939 2949 2951 2953 2955 2956 2957 2962 2970 2972 2980 2986 2982 2993 2989 2969 2984 2991 2995 3000 3005
2843 2834 2823 2816 2811 2808 2808 2813 2820 2828 2835 2841 2850 2858 2864 2874 2881 2886 2889 2894 2899 2904 2905 2911 2913 2921 2932 2937 2938 2937 2942 2948 2948 2952 2958 2963 2967 2970 2969 2974 2972 2966 2967 2974 2982 2977 2991
2840 2831 2821 2813 2807 2800 2803 2811 2816 2826 2832 2839 2846 2853 2863 2870 2878 2885 2889 2892 2897 2901 2905 2903 2911 2918 2922 2922 2928 2922 2926 2935 2940 2940 2945 2952 2958 2961 2962 2962 2961 2954 2959 2970 2979 2970 2979
2838 2828 2820 2813 2810 2807 2810 2813 2810 2820 2829 2837 2846 2854 2862 2870 2876 2880 2884 2887 2890 2894 2899 2900 2904 2912 2912 2913 2917 2918 2922 2928 2929 2932 2938 2940 2944 2946 2953 2953 2952 2954 2959 2966 2970 2962 2971
2836 2827 2818 2813 2813 2813 2815 2818 2825 2829 2837 2841 2848 2855 2862 2868 2872 2876 2880 2883 2886 2890 2893 2894 2899 2899 2908 2906 2909 2907 2912 2914 2920 2921 2923 2925 2932 2939 2943 2948 2948 2950 2955 2956 2958 2961 2967
2837 2827 2818 2815 2816 2817 2819 2823 2828 2832 2837 2843 2848 2853 2858 2865 2869 2872 2876 2879 2882 2886 2890 2890 2893 2893 2898 2901 2900 2899 2905 2905 2907 2911 2916 2918 2920 2926 2935 2936 2940 2944 2949 2951 2954 2959 2964